Temperature
32 32 31 31 31 32 31 31 31 31 30 30 30 29 29 28 27 27 26 25 24 23 22 22 21 20 20 19 19 19 18 18 17 17 17 17 17 16 16 16 15 15 15 15
30 31 31 31 31 32 31 32 31 31 30 31 30 29 28 28 27 26 26 25 24 23 22 22 21 20 20 19 19 18 18 18 17 17 17 17 16 16 16 16 15 15 15 15
29 30 30 30 31 31 31 31 31 30 30 30 29 28 27 27 27 26 25 24 23 23 22 21 21 20 19 19 18 18 18 17 17 17 17 16 16 16 16 15 15 15 15 15
29 29 28 30 32 32 31 31 31 30 30 30 29 27 27 26 26 26 25 24 23 22 22 21 20 20 19 19 18 18 17 17 17 17 16 16 16 16 15 15 15 15 14 14
28 28 28 30 31 31 30 29 30 30 30 29 28 27 26 26 26 25 24 23 23 22 22 21 20 20 19 18 18 18 17 17 17 16 16 16 16 15 15 15 15 15 14 14
28 27 27 29 31 31 30 28 29 29 29 28 27 26 26 25 25 24 23 23 22 22 21 20 20 19 18 18 18 17 17 17 16 16 16 16 15 15 15 15 14 14 14 14
27 27 28 29 31 31 28 27 27 27 27 27 26 26 25 25 24 23 23 22 22 21 20 20 19 19 18 18 17 17 17 16 16 16 16 16 15 15 15 14 14 14 14 14
27 27 27 29 30 28 26 26 27 26 26 26 25 25 24 24 23 22 22 22 21 20 20 19 19 18 18 17 17 16 16 16 16 16 15 15 15 15 15 14 14 14 14 14
27 26 27 27 27 26 26 26 25 25 25 25 25 24 24 23 22 22 22 21 20 20 19 19 18 18 17 17 16 16 16 16 15 15 15 15 15 15 15 14 14 14 14 14
26 26 27 26 26 25 25 25 25 25 24 24 24 24 23 22 22 21 21 20 20 19 19 18 18 17 17 16 16 16 15 15 15 15 15 15 15 14 14 14 14 14 14 14
25 26 26 25 25 24 24 24 24 24 24 23 23 23 22 22 21 21 20 20 19 19 19 18 17 17 16 16 16 15 15 15 15 15 15 15 15 14 14 14 14 14 14 14
25 25 25 24 24 24 23 23 23 23 23 23 22 22 21 21 20 20 19 19 19 18 18 18 17 16 16 16 15 15 15 15 15 15 15 15 15 14 14 14 14 14 14 14
24 24 24 23 23 23 23 23 22 22 22 22 21 21 21 20 19 19 19 18 18 18 17 17 17 16 16 15 15 15 15 15 15 15 15 15 15 15 14 14 14 14 14 13
23 23 22 22 22 22 22 22 22 22 21 21 21 20 20 19 19 18 18 18 18 17 17 17 16 16 16 15 15 15 15 15 15 15 15 15 15 15 14 14 14 14 14 13
22 22 22 22 21 21 21 21 21 21 21 20 20 19 19 19 18 18 18 17 17 17 16 16 16 15 15 15 15 15 15 15 14 14 15 15 15 14 14 14 14 14 13 13
21 21 21 21 21 21 21 21 21 20 20 19 19 19 18 18 18 17 17 17 16 16 16 15 15 15 15 15 15 15 14 14 14 14 14 14 14 14 14 14 14 13 13 13
20 21 21 21 21 21 20 20 20 20 19 19 18 18 18 18 17 17 16 16 16 16 15 15 15 15 14 14 14 14 14 14 14 14 14 14 14 14 14 14 13 13 13 13
20 20 20 20 20 20 20 19 19 19 18 18 18 18 17 17 16 16 16 16 16 15 15 15 15 14 14 14 14 14 14 14 14 14 14 14 14 14 14 14 13 13 13 13
19 19 19 19 19 19 19 18 18 18 17 17 17 17 17 16 16 16 16 15 15 15 15 15 14 14 14 14 14 14 14 14 14 13 13 13 13 13 13 13 13 13 13 13
18 18 18 18 18 18 18 17 17 17 17 16 16 16 16 16 15 15 15 15 15 15 15 14 14 14 14 14 14 13 13 13 13 13 13 13 13 13 13 13 13 13 12 12
17 17 17 17 17 17 17 17 16 16 16 16 15 15 15 15 15 15 15 15 15 14 14 14 14 14 14 14 13 13 13 13 13 13 13 13 13 13 13 13 12 12 12 12
17 17 17 16 16 16 16 16 16 16 15 15 15 15 15 14 15 14 14 14 14 14 14 14 14 14 13 13 13 13 13 13 13 13 13 12 12 12 12 12 12 12 11 11
16 16 16 16 16 16 15 15 15 15 15 15 14 14 14 14 14 14 14 14 14 14 14 14 13 13 13 13 13 13 13 13 13 13 12 12 12 12 12 12 11 11 11 11
15 15 15 15 15 15 15 15 15 15 14 14 14 14 14 14 14 14 14 14 14 13 13 13 13 13 13 13 13 13 13 13 12 12 12 12 12 12 11 11 11 11 11 10
14 14 14 14 14 15 15 15 14 14 14 14 14 14 14 14 14 13 13 13 13 13 13 13 13 13 12 12 12 12 12 12 12 12 12 12 12 11 11 11 11 10 10 10
14 14 14 14 14 14 14 14 14 14 14 14 14 14 13 13 13 13 13 13 13 12 12 12 12 12 12 12 12 12 12 12 12 12 11 11 11 11 11 10 10 10 10 9
14 14 14 14 14 14 14 14 14 14 14 14 13 13 13 13 13 13 12 12 12 12 12 12 12 12 12 12 11 11 11 11 11 11 11 11 11 10 10 10 10 9 9 9
Wind_Speed
12 9 8 10 10 9 8 8 8 4 3 4 5 4 5 7 8 6 6 6 7 7 6 7 6 5 4 3 2 3 4 3 3 3 2 1 1 1 0 1 1 1 1 1
11 10 10 11 11 10 8 7 7 4 2 3 6 5 4 6 7 6 6 6 7 6 6 6 6 5 4 4 3 3 3 3 3 3 2 2 1 1 0 1 1 1 1 2
12 10 11 12 10 8 7 5 6 4 1 4 6 6 5 4 6 6 6 7 6 5 5 5 5 5 5 4 4 4 3 3 2 3 2 2 2 2 1 1 1 1 1 2
11 11 13 9 6 6 5 3 3 1 2 3 6 6 5 5 5 6 7 7 5 5 5 5 5 5 5 4 4 4 3 2 2 2 2 2 2 2 2 2 1 1 1 1
9 11 12 8 7 5 3 2 2 2 1 3 5 5 5 3 6 7 7 6 5 4 4 4 4 5 5 4 4 3 3 2 2 1 2 2 2 2 2 2 2 2 2 1
10 12 12 7 5 3 2 3 1 2 2 3 4 2 3 5 6 6 7 6 4 4 5 5 4 4 4 4 3 2 2 2 2 2 1 2 2 2 2 1 2 2 1 1
13 13 10 5 4 4 5 1 4 4 3 2 3 2 3 6 6 4 6 6 6 5 5 4 4 4 3 2 2 1 1 2 2 2 2 2 2 2 2 2 2 2 2 2
11 13 8 2 2 1 4 5 4 3 3 4 4 3 3 6 6 5 6 5 5 5 5 4 4 3 2 2 2 2 1 1 2 1 2 1 2 2 2 2 3 3 3 3
4 3 2 5 5 6 5 5 4 3 3 3 3 2 5 6 5 4 5 4 4 5 5 4 3 3 2 2 2 2 1 1 1 2 1 2 3 3 3 3 3 3 3 3
1 2 2 5 7 6 5 4 3 2 2 1 1 3 5 4 4 4 4 3 3 4 4 3 3 2 2 3 2 1 1 1 2 2 3 3 3 3 3 3 3 2 2 2
3 1 1 4 5 5 4 3 2 2 1 0 1 3 4 4 3 3 3 3 3 3 3 3 3 3 2 2 2 1 1 2 2 3 3 2 2 2 2 1 1 1 2 2
3 1 1 2 3 3 3 3 3 2 1 2 2 3 3 4 4 3 3 3 2 2 2 3 3 2 2 2 2 1 1 2 2 2 2 3 3 2 1 2 3 3 2 1
1 3 3 3 2 3 2 1 1 1 1 2 2 2 3 4 3 3 2 2 2 1 1 1 2 2 2 2 2 2 2 2 3 3 3 3 3 3 2 2 3 4 5 5
4 3 2 2 3 3 2 1 2 2 2 2 2 3 3 3 3 2 2 2 2 1 1 1 1 1 1 2 2 3 4 3 4 4 3 3 3 3 3 3 3 3 5 8
2 1 1 1 1 1 1 0 1 1 1 2 2 2 2 2 2 2 2 1 1 1 1 1 1 1 1 1 1 3 3 3 3 4 4 4 3 3 4 3 2 2 2 3
4 3 2 3 3 3 3 2 2 1 1 1 1 2 2 2 2 1 1 1 1 2 1 1 1 1 1 2 2 3 3 4 4 4 5 4 3 4 3 2 2 2 2 1
5 4 3 3 4 3 3 2 1 0 0 1 2 2 2 1 1 1 1 1 1 1 2 1 1 1 2 2 3 4 4 4 4 4 4 4 4 3 3 2 2 2 1 1
4 4 4 3 3 2 1 1 0 1 0 0 1 1 1 1 1 1 1 1 1 1 1 1 1 2 3 2 3 4 4 3 2 3 3 3 3 3 3 3 3 3 1 2
3 3 3 3 2 1 0 0 1 1 2 1 0 1 1 0 0 1 1 2 2 2 1 0 2 3 3 3 3 4 4 3 2 2 2 1 2 3 3 3 3 3 3 2
3 3 2 2 1 1 0 1 1 1 1 1 1 1 0 1 1 1 2 2 2 2 1 1 2 3 3 2 3 4 4 3 2 1 1 2 3 3 3 3 3 3 3 2
3 3 2 1 1 1 0 1 1 1 1 0 0 1 1 2 2 2 2 3 1 1 1 2 2 2 2 2 4 4 4 3 2 1 2 2 3 3 3 3 3 3 3 3
2 2 1 1 1 1 1 1 1 1 1 1 1 2 2 3 3 3 3 3 3 1 2 2 2 1 2 3 4 4 4 3 2 2 2 2 2 2 2 2 2 2 3 3
0 0 1 2 2 1 1 1 1 1 2 2 2 3 3 3 3 3 3 2 1 1 2 1 1 1 1 4 4 4 3 3 2 2 2 2 1 1 2 2 2 2 2 2
1 1 2 2 2 2 3 3 2 2 3 3 4 4 3 3 3 2 1 1 0 1 1 1 2 2 3 4 4 4 3 2 2 2 2 1 1 1 1 1 1 2 2 3
2 3 3 4 4 4 3 3 3 3 4 3 3 3 3 2 2 1 1 1 1 1 1 2 4 3 3 3 3 3 2 2 2 2 2 2 2 1 1 2 2 2 2 2
3 3 3 3 3 3 3 3 3 3 3 3 2 2 1 0 1 0 0 0 0 1 2 1 2 3 2 2 2 2 2 2 2 2 2 2 2 2 2 2 3 3 2 2
4 3 3 3 2 2 2 2 2 2 2 2 2 1 1 1 1 0 1 1 1 1 1 1 1 1 1 2 1 1 2 2 2 2 2 2 2 2 2 3 2 3 3 3
Wind_Direction
267 260 255 260 265 263 258 268 278 277 205 168 143 134 125 122 129 134 135 135 128 129 135 135 135 135 137 149 142 139 144 146 147 146 133 144 149 136 68 357 28 50 47 25
267 266 259 259 258 260 259 264 266 262 262 128 118 112 115 129 134 129 126 120 123 133 132 139 143 146 147 144 133 129 141 143 139 142 149 163 166 176 129 67 51 49 36 39
269 262 261 258 255 255 264 283 284 280 182 130 127 126 139 140 142 140 134 126 128 130 136 143 146 146 151 152 148 154 159 151 156 160 165 174 195 161 150 150 161 177 91 78
266 266 261 268 272 264 256 289 314 285 155 129 126 116 122 139 141 130 122 121 121 134 138 140 145 152 152 155 151 158 156 159 175 184 178 184 185 179 178 179 190 186 138 131
262 260 256 254 256 252 237 262 286 263 185 121 123 126 115 129 123 124 123 123 130 138 139 135 145 145 147 158 152 156 161 167 169 181 193 205 198 195 200 191 194 206 203 184
253 261 261 254 258 266 250 231 59 58 62 92 110 138 126 122 105 115 120 122 119 117 118 120 123 130 143 156 161 172 174 167 161 165 191 213 201 197 203 205 227 222 185 174
249 255 258 272 268 248 247 166 64 56 50 80 82 85 124 121 107 107 110 119 113 108 110 112 113 122 145 140 134 128 143 148 146 168 203 188 166 171 198 218 235 234 204 214
246 254 250 342 281 309 75 69 64 65 55 63 64 86 104 110 114 123 112 112 113 105 105 104 107 118 125 108 97 87 93 122 136 168 229 164 146 182 214 224 233 230 227 231
236 246 75 75 79 85 85 74 52 41 60 67 85 118 116 117 121 120 114 114 116 117 112 106 115 134 135 116 107 97 101 127 169 196 216 176 195 203 215 219 232 231 221 230
231 160 115 84 80 71 69 68 54 53 55 82 152 142 132 131 121 123 116 128 137 128 130 130 136 137 127 121 120 130 165 195 202 207 212 206 218 217 224 228 236 244 244 250
260 255 141 110 88 74 55 55 47 78 77 45 127 119 124 119 116 122 129 135 127 130 137 135 130 126 123 127 138 167 199 220 224 223 220 213 211 239 245 248 236 253 298 314
246 190 210 95 80 106 92 61 31 40 56 58 75 112 121 119 111 107 110 107 109 115 126 133 136 133 127 135 144 178 229 242 244 240 231 231 216 222 176 165 143 148 161 192
351 32 70 74 53 54 68 101 102 57 57 100 107 119 118 112 111 102 108 121 126 131 120 117 130 136 144 154 163 207 241 250 267 267 253 246 243 231 214 190 210 218 213 208
35 37 36 36 23 15 16 48 77 54 54 69 80 96 102 110 112 108 113 127 127 119 113 129 145 154 159 170 197 236 249 247 262 271 270 257 252 247 235 225 223 225 219 217
330 309 244 231 249 294 307 299 123 110 81 82 87 98 106 106 106 113 125 139 139 161 182 194 206 201 187 209 220 252 264 266 271 285 284 279 269 258 251 238 242 242 208 212
292 269 227 212 214 232 250 243 221 214 167 117 122 118 116 121 124 132 125 139 177 207 199 201 224 226 216 247 253 255 252 254 256 273 277 277 279 279 274 264 256 257 248 231
267 271 255 234 227 223 236 252 248 265 136 142 143 140 134 128 135 137 189 204 201 219 202 203 228 237 236 246 262 268 266 249 237 267 281 289 294 293 295 289 282 282 281 224
252 262 265 262 249 232 241 270 146 81 132 160 145 127 143 164 180 218 243 255 248 236 213 186 190 236 243 248 265 274 276 272 253 262 276 298 307 305 299 288 277 274 246 229
247 253 249 261 279 259 250 331 71 62 60 60 120 163 152 111 350 299 270 252 246 239 232 223 228 248 245 225 257 266 271 279 283 285 301 294 273 285 287 286 288 285 275 252
240 255 262 261 264 254 157 87 72 57 44 44 20 344 340 5 339 312 293 271 265 278 253 273 258 265 271 258 260 270 273 273 274 288 285 280 278 281 287 290 290 291 296 288
226 226 231 252 283 288 229 138 111 112 112 131 253 272 292 299 287 283 279 277 275 303 276 220 240 264 280 280 253 260 266 268 263 245 245 269 283 289 297 311 317 314 305 301
210 205 204 220 240 269 296 254 181 181 210 248 257 269 280 280 276 269 261 266 265 215 251 260 252 285 294 263 259 263 264 267 269 278 276 271 277 291 304 313 309 301 301 309
35 182 241 259 269 269 268 241 215 206 226 247 256 259 264 274 275 271 267 275 291 289 279 300 65 139 253 268 273 274 279 283 290 298 296 289 285 301 310 308 301 300 305 306
324 285 262 256 256 248 247 242 238 225 228 237 243 243 249 260 268 270 279 184 299 312 298 113 161 210 248 266 276 284 288 291 300 301 301 308 311 323 316 322 313 307 307 315
293 278 257 245 239 233 234 233 233 236 243 244 247 248 250 254 287 324 11 53 57 295 276 191 193 225 251 273 281 297 314 326 328 319 320 321 321 334 345 335 325 318 323 325
276 270 273 265 260 249 241 239 238 237 236 240 244 242 258 258 262 238 205 196 258 272 280 237 202 224 261 283 305 325 328 330 313 303 320 326 336 347 355 345 333 337 333 320
260 259 254 254 253 261 262 258 259 258 252 249 261 232 205 250 232 249 298 311 308 303 321 334 327 314 314 319 332 354 345 335 324 320 326 333 334 351 359 359 359 349 341 340
Height
1457 1455 1456 1460 1460 1457 1461 1465 1470 1469 1469 1467 1468 1471 1474 1477 1481 1485 1488 1491 1493 1496 1498 1499 1502 1503 1504 1506 1507 1507 1508 1509 1509 1510 1510 1510 1510 1510 1509 1509 1509 1508 1508 1507
1462 1457 1457 1459 1457 1456 1457 1458 1460 1463 1466 1462 1466 1470 1474 1477 1480 1484 1488 1491 1494 1496 1498 1499 1501 1502 1503 1505 1506 1507 1507 1508 1508 1508 1508 1508 1508 1508 1508 1508 1507 1507 1506 1506
1468 1460 1461 1467 1456 1456 1456 1455 1459 1464 1465 1463 1468 1472 1476 1479 1481 1484 1487 1491 1493 1495 1497 1498 1499 1500 1502 1504 1505 1505 1506 1506 1506 1506 1506 1506 1507 1506 1506 1506 1506 1506 1505 1505
1467 1469 1484 1461 1446 1448 1453 1455 1456 1460 1462 1464 1468 1472 1475 1478 1481 1484 1487 1491 1493 1495 1496 1497 1498 1499 1501 1503 1503 1504 1504 1504 1504 1505 1505 1505 1505 1504 1504 1504 1504 1504 1504 1503
1469 1475 1471 1457 1449 1449 1455 1461 1458 1461 1462 1464 1468 1472 1476 1479 1481 1483 1486 1490 1492 1494 1495 1496 1497 1498 1499 1501 1501 1502 1502 1502 1503 1503 1503 1503 1503 1502 1503 1503 1503 1503 1503 1502
1468 1477 1478 1461 1448 1448 1454 1465 1460 1461 1464 1466 1467 1473 1478 1479 1482 1483 1486 1489 1491 1493 1494 1495 1497 1497 1498 1499 1500 1500 1501 1501 1501 1501 1501 1501 1501 1501 1501 1501 1502 1502 1501 1501
1467 1471 1463 1452 1449 1450 1467 1471 1464 1465 1467 1469 1471 1475 1477 1479 1481 1483 1486 1488 1490 1492 1493 1494 1495 1496 1497 1498 1499 1499 1499 1499 1499 1499 1499 1499 1499 1499 1500 1500 1500 1500 1499 1499
1465 1471 1469 1452 1451 1458 1465 1464 1465 1467 1470 1472 1473 1476 1477 1479 1481 1484 1485 1488 1490 1491 1492 1493 1494 1495 1496 1497 1497 1498 1497 1497 1497 1497 1497 1498 1497 1497 1497 1498 1498 1498 1498 1497
1459 1463 1457 1456 1458 1461 1463 1466 1468 1470 1472 1473 1475 1477 1478 1481 1483 1485 1486 1488 1490 1491 1492 1492 1493 1494 1494 1495 1495 1496 1496 1496 1495 1495 1495 1495 1495 1495 1495 1496 1496 1496 1496 1495
1455 1457 1457 1458 1461 1463 1465 1467 1469 1470 1471 1473 1475 1477 1479 1481 1483 1485 1486 1489 1489 1490 1491 1492 1492 1493 1493 1493 1493 1494 1494 1494 1494 1494 1494 1494 1494 1494 1494 1494 1494 1494 1494 1493
1456 1457 1458 1461 1463 1465 1467 1468 1469 1471 1473 1474 1475 1476 1478 1480 1482 1484 1486 1487 1489 1489 1490 1491 1491 1491 1492 1492 1492 1492 1492 1492 1492 1492 1492 1492 1492 1492 1492 1492 1492 1492 1491 1491
1459 1459 1460 1463 1465 1466 1468 1469 1471 1472 1473 1474 1475 1476 1478 1480 1482 1484 1485 1486 1487 1488 1489 1489 1489 1490 1491 1491 1490 1490 1490 1491 1491 1491 1491 1490 1490 1490 1490 1490 1489 1489 1489 1489
1458 1459 1461 1464 1465 1467 1468 1470 1471 1473 1474 1475 1476 1477 1479 1480 1482 1484 1484 1485 1486 1487 1487 1487 1488 1488 1489 1489 1489 1489 1489 1489 1489 1489 1489 1489 1488 1488 1487 1487 1486 1486 1486 1485
1460 1461 1463 1465 1467 1469 1470 1471 1472 1473 1474 1475 1476 1478 1479 1480 1481 1483 1483 1484 1485 1485 1486 1487 1487 1487 1487 1486 1487 1487 1487 1487 1487 1487 1486 1486 1486 1485 1485 1483 1483 1483 1483 1482
1462 1463 1465 1466 1468 1470 1470 1471 1473 1474 1475 1476 1477 1478 1479 1480 1481 1482 1483 1483 1484 1484 1485 1485 1485 1485 1485 1485 1485 1485 1485 1485 1485 1485 1484 1484 1483 1483 1482 1481 1480 1480 1479 1479
1463 1463 1465 1466 1468 1470 1471 1472 1473 1474 1475 1476 1477 1478 1479 1479 1480 1481 1481 1482 1482 1482 1483 1483 1483 1483 1483 1483 1482 1482 1482 1482 1482 1482 1482 1481 1481 1480 1480 1479 1478 1477 1477 1476
1463 1464 1465 1466 1468 1469 1470 1471 1472 1473 1474 1475 1476 1477 1478 1479 1480 1480 1480 1480 1481 1481 1481 1481 1481 1481 1481 1480 1480 1480 1480 1480 1480 1480 1479 1479 1478 1478 1477 1477 1476 1475 1474 1474
1463 1464 1465 1466 1467 1468 1470 1471 1472 1473 1474 1475 1475 1476 1477 1478 1478 1478 1479 1479 1479 1479 1479 1478 1478 1478 1478 1478 1477 1477 1477 1477 1477 1477 1477 1477 1476 1475 1475 1474 1473 1473 1471 1471
1462 1464 1465 1466 1467 1468 1469 1470 1471 1472 1473 1474 1474 1475 1476 1476 1476 1477 1477 1477 1477 1477 1476 1476 1476 1476 1475 1475 1475 1475 1475 1475 1474 1474 1474 1474 1474 1473 1473 1472 1471 1470 1469 1468
1462 1463 1464 1465 1466 1467 1468 1469 1470 1471 1472 1473 1473 1474 1474 1474 1474 1475 1475 1475 1474 1474 1474 1474 1473 1473 1473 1473 1472 1473 1473 1472 1472 1471 1471 1471 1471 1471 1470 1469 1469 1468 1467 1466
1461 1462 1463 1464 1465 1467 1467 1468 1469 1470 1471 1472 1472 1473 1473 1473 1472 1472 1472 1472 1472 1472 1471 1471 1471 1471 1471 1470 1470 1470 1471 1470 1470 1469 1469 1469 1468 1468 1467 1467 1466 1465 1464 1463
1460 1461 1462 1463 1465 1466 1467 1467 1468 1469 1469 1470 1471 1471 1471 1470 1470 1470 1470 1470 1469 1469 1469 1469 1469 1468 1468 1468 1468 1468 1468 1468 1467 1467 1467 1466 1465 1465 1464 1464 1463 1462 1462 1461
1459 1460 1461 1462 1463 1464 1465 1466 1466 1467 1468 1468 1468 1468 1468 1468 1468 1468 1467 1467 1467 1466 1466 1466 1466 1466 1466 1466 1466 1466 1465 1465 1465 1465 1464 1464 1463 1462 1462 1461 1460 1459 1458 1458
1459 1459 1460 1461 1462 1462 1463 1464 1464 1465 1465 1466 1466 1466 1466 1466 1466 1465 1465 1464 1464 1464 1464 1463 1463 1463 1463 1463 1463 1463 1463 1463 1462 1462 1462 1461 1460 1460 1459 1458 1458 1457 1456 1455
1457 1458 1458 1459 1459 1460 1461 1461 1462 1463 1463 1463 1463 1463 1463 1463 1463 1463 1463 1462 1462 1461 1461 1461 1461 1461 1461 1461 1461 1461 1461 1460 1460 1460 1459 1459 1458 1457 1457 1456 1455 1454 1453 1452
1456 1456 1456 1456 1456 1457 1458 1459 1459 1460 1460 1461 1461 1461 1461 1461 1461 1461 1460 1460 1460 1459 1459 1459 1459 1459 1458 1459 1459 1458 1458 1458 1457 1457 1457 1456 1456 1455 1454 1454 1453 1452 1451 1449
1455 1455 1455 1455 1455 1456 1456 1457 1457 1457 1458 1458 1458 1459 1459 1459 1459 1459 1458 1458 1458 1458 1457 1457 1457 1457 1457 1457 1456 1456 1455 1455 1455 1455 1455 1454 1454 1453 1452 1452 1451 1449 1448 1447